Home   Weather   Menominee   Past weeks

Flag for USA Past Weather in Menominee, Michigan, USA — Yesterday and Last 2 Weeks

Now
16 °F

Sunny.


Feels Like: 5 °F
Forecast: 13 / 20 °F
Wind: 8 mph from Northwest

Location: Menominee Weather Reporting Station

Current Time: Dec 10, 2016 at 10:57:50 am

Latest Report: Dec 10, 2016 at 9:56 am


Visibility: 10 mi

Pressure: 30.51 "Hg

Humidity: 53%

Dew Point: 2 °F

Location of MenomineeLocation

Past Weather in Menominee — Graph

°F

Menominee Temperature Yesterday

Maximum temperature yesterday: 25 °F (at 11:56 am)
Minimum temperature yesterday: 18 °F (at 7:56 am)
Average temperature yesterday: 21 °F

High & Low Weather Summary for the Past Weeks

 TemperatureHumidityPressure
High48 °F (Nov 28, 11:56 pm)100% (Nov 27, 2:56 am)30.50 "Hg (Nov 27, 2:56 am)
Low13 °F (Dec 10, 6:56 am)47% (Dec 8, 2:56 pm)29.10 "Hg (Nov 29, 12:56 am)
Average34 °F80%29.98 "Hg
* Reported Nov 25 7:56 am — Dec 10 7:56 am, Menominee, Weather by CustomWeather, © 2016

Note: Actual official high and low records may vary slightly from our data, if they occured in-between our weather recording intervals... More about our weather records

Advertising

Menominee Weather History for the Previous 24 Hours

Scroll right to see more
 ConditionsComfort  
Time TempWeatherWind HumidityBarometerVisibility
7:56 am
Sat, Dec 10
13 °FSunny.6 mph64%30.50 "Hg10 mi
6:56 am13 °FPassing clouds.6 mph64%30.50 "Hg10 mi
5:56 am15 °FOvercast.7 mph64%30.49 "Hg10 mi
4:56 am16 °FOvercast.7 mph62%30.48 "Hg10 mi
3:56 am17 °FOvercast.8 mph62%30.47 "Hg10 mi
2:56 am18 °FLight snow. Overcast.5 mph71%30.48 "Hg9 mi
1:56 am19 °FLight snow. Mostly cloudy.6 mph68%30.48 "Hg9 mi
12:56 am19 °FOvercast.No wind65%30.47 "Hg10 mi
11:56 pm
Fri, Dec 9
19 °FOvercast.5 mph62%30.47 "Hg10 mi
10:56 pm18 °FOvercast.3 mph62%30.48 "Hg10 mi
9:56 pm18 °FOvercast.3 mph59%30.48 "Hg10 mi
8:56 pm18 °FPassing clouds.5 mph57%30.49 "Hg10 mi
7:56 pm20 °FOvercast.8 mph55%30.49 "Hg10 mi
6:56 pm21 °FOvercast.6 mph55%30.50 "Hg10 mi
5:56 pm22 °FOvercast.9 mph55%30.48 "Hg10 mi
4:56 pm23 °FOvercast.6 mph53%30.48 "Hg10 mi
3:56 pm24 °FOvercast.8 mph50%30.48 "Hg10 mi
2:56 pm25 °FOvercast.8 mph48%30.46 "Hg10 mi
1:56 pm25 °FOvercast.7 mph50%30.45 "Hg10 mi
12:56 pm25 °FPartly sunny.7 mph50%30.45 "Hg10 mi
11:56 am25 °FSunny.9 mph50%30.47 "Hg10 mi
10:56 am24 °FSunny.9 mph55%30.49 "Hg10 mi
Weather by CustomWeather, © 2016

See weather overviewHow to use our weather pages